Regional Weather Roundup
Issued by NWS

Home | Current Version | Previous Version | Text Only | Print | Product List | Glossary On
Versions: 1 2 3 4 5 6 7 8 9 10 11 12 13 14 15 16 17 18 19 20 21 22 23 24 25 26 27 28 29 30 31 32 33 34 35 36 37 38 39 40 41 42 43 44 45 46 47 48 49 50
693
ASUS44 KJAN 212103
RWRMS

MISSISSIPPI HOURLY WEATHER ROUNDUP
NATIONAL WEATHER SERVICE JACKSON MS
400 PM CDT MON JUL 21 2014

NOTE: "FAIR: INDICATES FEW OR NO CLOUDS BELOW 12,000 FEET WITH NO
SIGNIFICANT WEATHER AND/OR OBSTRUCTIONS TO VISIBILITY.

MSZ001>002-007>008-010>013-018>021-025>028-034>036-212200-
NORTHWEST MISSISSIPPI

CITY           SKY/WX    TMP DP  RH WIND       PRES   REMARKS
CLARKSDALE     FAIR      84  70  61 CALM      30.04F
CLEVELAND      FAIR      86  72  62 N6        30.02F HX  92
GREENWOOD      MOSUNNY   87  67  51 N6        30.01F HX  90
GREENVILLE     MOSUNNY   88  72  58 NE5       30.02F HX  94
GRENADA        FAIR      86  64  48 NE6       30.03S
OLIVE BRANCH   MOSUNNY   84  66  54 NW3       30.04F
OXFORD         FAIR      82  66  57 N5        30.05F
TUNICA         MOCLDY    84  68  58 N6        30.04F
$$

MSZ003>006-009-014>017-022>024-029>033-037>039-212200-
NORTHEAST MISSISSIPPI

CITY           SKY/WX    TMP DP  RH WIND       PRES   REMARKS
BELMONT        FAIR      85  69  58 N3        30.04S
COLUMBUS AFB   MOSUNNY   88  68  51 NW8       30.01F HX  91
CORINTH        FAIR      84  66  54 NW6       30.03F
STARKVILLE     FAIR      86  66  51 N7        30.01F
TUPELO         SUNNY     86  64  47 NE5       30.02F
$$

MSZ040-058-212200-
CENTRAL MISSISSIPPI

CITY           SKY/WX    TMP DP  RH WIND       PRES   REMARKS
JACKSON INTL   MOSUNNY   89  65  44 CALM      30.01F HX  91
JACKSON HAWKNS MOSUNNY   88  66  48 VRB6      30.02F HX  90
MERIDIAN KEY   PTSUNNY   86  66  51 E6        30.00S
MERIDIAN NAS   MOSUNNY   89  68  49 N10       30.01S HX  93
RAYMOND        FAIR      88  82  84 NW5       30.01F HX 108
VICKSBURG      MOSUNNY   89  71  55 VRB6      30.02F HX  95
$$

MSZ059>079-212200-
SOUTH MISSISSIPPI

CITY           SKY/WX    TMP DP  RH WIND       PRES   REMARKS
BROOKHAVEN     FAIR      86  70  58 N6        30.04F HX  90
COLUMBIA       FAIR      88  68  51 VRB5      29.99F HX  91
HATTIESBURG    MOSUNNY   89  67  47 W7        30.00F HX  92
MCCOMB         MOSUNNY   88  67  49 NW6       30.01F HX  91
NATCHEZ        PTSUNNY   82  70  65 N5        30.03F
PINE BELT      SUNNY     88  66  48 SW5       30.02F HX  90
$$

MSZ080>082-212200-
COASTAL MISSISSIPPI

CITY           SKY/WX    TMP DP  RH WIND       PRES   REMARKS
BAY ST LOUIS   MOSUNNY  N/A N/A N/A NW9       29.98F
BILOXI         MOSUNNY   91  69  49 VRB5      29.98F HX  95
PASCAGOULA     SUNNY     90  68  48 VRB5      29.97F HX  94
GULFPORT       MOSUNNY   93  68  43 NW7       29.98F HX  97
$$



USA.gov is the U.S. government's official web portal to all federal, state and local government web resources and services.